Gadsden, AL

4:48 PM CST on November 16, 2019 (GMT -0600)
Gadsden Municipal

Weather History for KGAD - October, 2019

Change the Weather History Date:

Sunday, October 13, 2019

  Actual Average Record
Temperature  
Mean Temperature 60 °F -  
Max Temperature 69 °F 71 °F 88 °F (1949)
Min Temperature 51 °F 48 °F 31 °F (1946)
Degree Days  
Heating Degree Days 5    
Growing Degree Days 10 (Base 50)    
Moisture  
Dew Point 50 °F    
Average Humidity 73    
Maximum Humidity 92    
Minimum Humidity 45    
Precipitation  
Precipitation 0.02 in - - ()
Sea Level Pressure  
Sea Level Pressure 30.08 in    
Wind  
Wind Speed 2 mph ()    
Max Wind Speed 8 mph    
Max Gust Speed -    
Visibility 10.0 miles    
Events Rain    
Averages and records for this station are not official NWS values.
T = Trace of Precipitation, MM = Missing Value Source: Averaged Metar Reports

Daily Weather History Graph

Daily Weather History Graph

Search for Another Location

Airport or City:

Astronomy

Oct. 13, 2019 Rise Set
Actual Time 6:47 AM CDT 6:13 PM CDT
Civil Twilight 6:22 AM CDT 6:38 PM CDT
Nautical Twilight 5:53 AM CDT 7:07 PM CDT
Astronomical Twilight 5:24 AM CDT 7:36 PM CDT
Moon 6:32 PM CDT (10/13) 6:25 AM CDT (10/13)
Length of Visible Light 12h 15m
Length of Day
11h 25m
Full, 100% of the Moon is Illuminated
Oct 13
Full
Oct 13
Full
Oct 21
Last Quarter
Oct 27
New
Nov 4
First Quarter

Hourly Weather History & Observations

Time (CDT) Temp. Dew Point Humidity Pressure Visibility Wind Dir Wind Speed Gust Speed Precip Events Conditions
12:56 AM 60.1 °F 48.0 °F 64% 30.04 in 9.0 mi Calm Calm - N/A   Overcast
1:56 AM 60.1 °F 48.9 °F 67% 30.03 in 10.0 mi NW 3.5 mph - N/A   Overcast
2:56 AM 59.0 °F 46.9 °F 64% 30.03 in 10.0 mi NNW 3.5 mph - N/A   Overcast
3:56 AM 59.0 °F 48.9 °F 69% 30.04 in 10.0 mi NNW 3.5 mph - N/A   Overcast
4:56 AM 59.0 °F 48.9 °F 69% 30.05 in 10.0 mi Calm Calm - N/A   Overcast
5:56 AM 59.0 °F 50.0 °F 72% 30.06 in 10.0 mi NNW 3.5 mph - N/A   Overcast
6:56 AM 59.0 °F 50.0 °F 72% 30.09 in 10.0 mi Calm Calm - N/A   Overcast
7:56 AM 59.0 °F 50.0 °F 72% 30.09 in 10.0 mi Calm Calm - N/A   Overcast
8:56 AM 60.1 °F 51.1 °F 72% 30.10 in 10.0 mi Calm Calm - N/A   Overcast
9:06 AM 60.8 °F 51.8 °F 72% 30.09 in 10.0 mi Calm Calm - N/A   Overcast
9:56 AM 62.1 °F 52.0 °F 70% 30.10 in 10.0 mi Calm Calm - N/A   Overcast
10:56 AM 66.0 °F 54.0 °F 65% 30.09 in 10.0 mi Calm Calm - N/A   Mostly Cloudy
11:56 AM 66.9 °F 53.1 °F 61% 30.09 in 10.0 mi West 5.8 mph - N/A   Mostly Cloudy
12:56 PM 68.0 °F 52.0 °F 56% 30.07 in 10.0 mi SW 5.8 mph - N/A   Scattered Clouds
1:56 PM 68.0 °F 46.0 °F 45% 30.08 in 10.0 mi WSW 6.9 mph - N/A   Clear
2:56 PM 62.1 °F 51.1 °F 67% 30.06 in 10.0 mi South 4.6 mph - 0.00 in Rain Light Rain
3:56 PM 59.0 °F 55.0 °F 87% 30.04 in 10.0 mi Calm Calm - 0.02 in Rain Light Rain
4:56 PM 57.9 °F 52.0 °F 81% 30.08 in 10.0 mi WSW 8.1 mph - 0.00 in Rain Light Rain
5:56 PM 55.9 °F 51.1 °F 84% 30.09 in 10.0 mi Calm Calm - 0.00 in   Scattered Clouds
6:56 PM 55.0 °F 51.1 °F 86% 30.11 in 10.0 mi SW 5.8 mph - 0.00 in Rain Light Rain
8:56 PM 54.0 °F 48.9 °F 83% 30.12 in 10.0 mi Calm Calm - N/A   Scattered Clouds
9:56 PM 52.0 °F 48.9 °F 89% 30.10 in 10.0 mi Calm Calm - N/A   Clear
10:56 PM 52.0 °F 48.9 °F 89% 30.10 in 10.0 mi Calm Calm - N/A   Clear
11:56 PM 51.1 °F 48.9 °F 92% 30.10 in 10.0 mi NW 3.5 mph - N/A   Mostly Cloudy